QPF
0.00 0.00 0.00 0.00 0.01 0.01 0.01 0.02 0.02 0.03 0.03 0.03 0.03 0.04 0.08 0.09 0.09 0.11 0.15 0.16 0.14 0.15 0.14 0.14 0.15 0.17 0.16 0.14 0.12 0.11 0.11 0.10 0.07 0.05 0.04 0.02 0.01 0.01 0.01 0.00 0.00 0.00 0.00
0.00 0.00 0.00 0.00 0.00 0.01 0.01 0.03 0.06 0.09 0.10 0.11 0.13 0.14 0.16 0.18 0.19 0.22 0.21 0.17 0.16 0.17 0.18 0.20 0.23 0.23 0.22 0.21 0.17 0.13 0.12 0.11 0.09 0.08 0.06 0.03 0.02 0.01 0.00 0.00 0.00 0.00 0.00
0.00 0.00 0.00 0.00 0.00 0.01 0.01 0.03 0.09 0.16 0.20 0.22 0.19 0.21 0.26 0.28 0.29 0.31 0.29 0.24 0.20 0.18 0.18 0.21 0.28 0.31 0.31 0.29 0.25 0.19 0.15 0.13 0.09 0.05 0.03 0.02 0.01 0.00 0.00 0.00 0.00 0.00 0.00
0.00 0.00 0.00 0.00 0.01 0.01 0.02 0.05 0.12 0.21 0.24 0.24 0.24 0.28 0.28 0.28 0.31 0.30 0.25 0.15 0.11 0.10 0.12 0.16 0.20 0.23 0.26 0.25 0.21 0.17 0.13 0.09 0.05 0.03 0.02 0.01 0.01 0.00 0.00 0.00 0.00 0.00 0.00
0.00 0.00 0.00 0.00 0.01 0.01 0.03 0.07 0.12 0.17 0.19 0.22 0.27 0.26 0.25 0.25 0.22 0.17 0.10 0.06 0.05 0.06 0.08 0.12 0.15 0.16 0.17 0.16 0.13 0.10 0.08 0.06 0.04 0.02 0.01 0.01 0.00 0.00 0.00 0.00 0.00 0.00 0.00
0.00 0.00 0.00 0.01 0.01 0.02 0.04 0.07 0.10 0.12 0.15 0.18 0.23 0.19 0.18 0.18 0.13 0.09 0.05 0.04 0.04 0.04 0.05 0.06 0.08 0.08 0.08 0.07 0.06 0.05 0.04 0.02 0.01 0.00 0.00 0.00 0.00 0.00 0.00 0.00 0.00 0.00 0.00
0.00 0.00 0.01 0.01 0.01 0.02 0.03 0.06 0.08 0.10 0.13 0.14 0.15 0.16 0.18 0.17 0.11 0.06 0.05 0.03 0.02 0.01 0.01 0.01 0.02 0.02 0.03 0.03 0.03 0.02 0.01 0.00 0.00 0.00 0.00 0.00 0.00 0.00 0.00 0.00 0.00 0.00 0.00
0.01 0.01 0.01 0.01 0.01 0.02 0.02 0.03 0.03 0.05 0.07 0.09 0.11 0.13 0.15 0.12 0.07 0.04 0.02 0.01 0.00 0.01 0.01 0.01 0.01 0.01 0.01 0.01 0.01 0.01 0.00 0.00 0.00 0.00 0.00 0.00 0.00 0.00 0.00 0.00 0.00 0.00 0.00
0.01 0.01 0.01 0.01 0.01 0.02 0.02 0.02 0.02 0.04 0.05 0.06 0.07 0.08 0.08 0.05 0.04 0.02 0.01 0.00 0.00 0.00 0.00 0.00 0.00 0.00 0.00 0.00 0.01 0.01 0.01 0.01 0.01 0.01 0.01 0.01 0.01 0.00 0.00 0.00 0.00 0.00 0.00
0.01 0.01 0.02 0.02 0.02 0.02 0.02 0.02 0.02 0.03 0.04 0.04 0.04 0.04 0.03 0.02 0.01 0.01 0.00 0.00 0.00 0.00 0.00 0.00 0.00 0.00 0.00 0.01 0.01 0.01 0.01 0.01 0.01 0.00 0.00 0.00 0.00 0.00 0.00 0.00 0.00 0.00 0.00
0.01 0.01 0.02 0.02 0.02 0.02 0.02 0.02 0.02 0.02 0.02 0.02 0.02 0.01 0.01 0.00 0.00 0.00 0.00 0.01 0.00 0.00 0.00 0.00 0.00 0.00 0.00 0.00 0.00 0.00 0.00 0.00 0.00 0.00 0.00 0.00 0.00 0.00 0.00 0.00 0.00 0.00 0.00
0.01 0.01 0.02 0.02 0.02 0.02 0.02 0.02 0.02 0.01 0.01 0.01 0.01 0.01 0.00 0.00 0.00 0.00 0.00 0.00 0.00 0.00 0.00 0.00 0.00 0.00 0.00 0.00 0.00 0.00 0.00 0.00 0.00 0.00 0.00 0.00 0.00 0.00 0.00 0.00 0.00 0.00 0.01
0.02 0.02 0.02 0.02 0.02 0.02 0.02 0.02 0.01 0.01 0.01 0.00 0.00 0.00 0.00 0.00 0.00 0.00 0.00 0.00 0.00 0.00 0.00 0.00 0.00 0.00 0.00 0.00 0.00 0.00 0.00 0.00 0.00 0.00 0.00 0.00 0.00 0.00 0.01 0.01 0.01 0.01 0.01
0.02 0.02 0.03 0.02 0.02 0.01 0.01 0.01 0.01 0.01 0.01 0.01 0.01 0.01 0.01 0.01 0.00 0.00 0.00 0.00 0.00 0.00 0.00 0.00 0.00 0.00 0.00 0.00 0.00 0.00 0.00 0.00 0.00 0.00 0.00 0.00 0.00 0.01 0.01 0.01 0.01 0.01 0.01
0.04 0.03 0.02 0.02 0.01 0.01 0.01 0.01 0.01 0.01 0.01 0.01 0.01 0.01 0.01 0.00 0.00 0.00 0.00 0.00 0.00 0.00 0.00 0.00 0.00 0.00 0.00 0.00 0.00 0.00 0.00 0.00 0.00 0.00 0.00 0.01 0.01 0.00 0.00 0.00 0.00 0.01 0.02
0.05 0.04 0.03 0.02 0.02 0.01 0.01 0.01 0.01 0.01 0.01 0.00 0.00 0.00 0.00 0.00 0.00 0.00 0.00 0.00 0.00 0.00 0.00 0.00 0.00 0.00 0.00 0.00 0.00 0.00 0.00 0.00 0.01 0.01 0.01 0.01 0.01 0.00 0.00 0.01 0.01 0.01 0.02
0.09 0.08 0.07 0.05 0.04 0.04 0.03 0.02 0.02 0.02 0.01 0.01 0.01 0.01 0.00 0.00 0.00 0.00 0.01 0.01 0.01 0.01 0.01 0.01 0.01 0.01 0.00 0.00 0.00 0.00 0.00 0.00 0.01 0.01 0.01 0.01 0.01 0.01 0.01 0.01 0.01 0.01 0.01
0.18 0.17 0.14 0.14 0.13 0.11 0.08 0.06 0.05 0.03 0.02 0.02 0.01 0.01 0.01 0.01 0.01 0.01 0.01 0.01 0.01 0.01 0.01 0.01 0.01 0.01 0.00 0.00 0.00 0.00 0.00 0.01 0.01 0.01 0.01 0.01 0.01 0.02 0.00 0.00 0.00 0.01 0.02
0.27 0.24 0.20 0.17 0.14 0.10 0.07 0.05 0.03 0.02 0.02 0.01 0.01 0.01 0.01 0.01 0.02 0.02 0.02 0.02 0.01 0.01 0.01 0.01 0.01 0.02 0.01 0.00 0.00 0.00 0.00 0.00 0.00 0.01 0.01 0.01 0.01 0.01 0.00 0.00 0.01 0.01 0.02
0.17 0.16 0.14 0.10 0.07 0.05 0.04 0.03 0.02 0.02 0.01 0.01 0.01 0.01 0.02 0.02 0.02 0.01 0.01 0.01 0.01 0.01 0.01 0.01 0.01 0.02 0.02 0.00 0.00 0.00 0.00 0.00 0.00 0.00 0.01 0.01 0.00 0.00 0.00 0.00 0.01 0.01 0.02
0.10 0.08 0.05 0.04 0.03 0.02 0.02 0.02 0.02 0.02 0.02 0.02 0.02 0.02 0.02 0.01 0.01 0.01 0.01 0.01 0.01 0.02 0.02 0.02 0.03 0.03 0.02 0.00 0.00 0.00 0.00 0.00 0.00 0.01 0.01 0.02 0.00 0.00 0.00 0.00 0.01 0.02 0.01
0.02 0.02 0.01 0.02 0.02 0.02 0.03 0.03 0.03 0.03 0.03 0.03 0.03 0.02 0.01 0.01 0.01 0.01 0.02 0.02 0.03 0.03 0.03 0.03 0.03 0.03 0.02 0.01 0.00 0.00 0.00 0.00 0.01 0.02 0.02 0.02 0.00 0.00 0.00 0.00 0.01 0.00 0.01
0.01 0.01 0.01 0.02 0.02 0.03 0.04 0.04 0.04 0.03 0.03 0.04 0.04 0.02 0.01 0.01 0.01 0.01 0.02 0.02 0.03 0.03 0.03 0.03 0.03 0.03 0.03 0.02 0.00 0.00 0.00 0.00 0.01 0.02 0.01 0.00 0.00 0.00 0.02 0.02 0.00 0.02 0.07
0.01 0.01 0.02 0.02 0.02 0.03 0.03 0.03 0.03 0.03 0.04 0.04 0.03 0.02 0.02 0.02 0.01 0.01 0.01 0.01 0.02 0.02 0.02 0.03 0.02 0.03 0.03 0.01 0.00 0.00 0.01 0.01 0.01 0.01 0.01 0.01 0.01 0.02 0.03 0.04 0.06 0.09 0.09
0.02 0.02 0.02 0.02 0.02 0.02 0.01 0.01 0.02 0.03 0.04 0.04 0.02 0.02 0.03 0.03 0.02 0.03 0.02 0.01 0.01 0.00 0.00 0.01 0.01 0.01 0.01 0.01 0.00 0.00 0.00 0.00 0.00 0.00 0.01 0.04 0.04 0.04 0.04 0.04 0.05 0.06 0.06
0.02 0.02 0.02 0.02 0.01 0.01 0.00 0.00 0.00 0.01 0.02 0.03 0.01 0.01 0.02 0.02 0.02 0.03 0.04 0.01 0.00 0.00 0.00 0.00 0.00 0.00 0.00 0.00 0.00 0.00 0.00 0.00 0.00 0.01 0.02 0.03 0.02 0.02 0.03 0.03 0.03 0.04 0.05
MSLP
1002.12 1002.58 1003.12 1003.69 1004.27 1004.86 1005.48 1006.16 1006.92 1007.77 1008.71 1009.68 1010.66 1011.57 1012.38 1013.06 1013.58 1013.98 1014.29 1014.55 1014.81 1015.10 1015.47 1015.92 1016.43 1016.99 1017.57 1018.14 1018.67 1019.14 1019.53 1019.84 1020.06 1020.20 1020.27 1020.27 1020.21 1020.11 1020.00 1019.88 1019.79 1019.74 1019.73
1002.87 1003.33 1003.80 1004.25 1004.68 1005.10 1005.56 1006.10 1006.77 1007.59 1008.53 1009.57 1010.62 1011.63 1012.54 1013.30 1013.89 1014.34 1014.68 1014.96 1015.23 1015.54 1015.91 1016.35 1016.86 1017.40 1017.96 1018.49 1018.98 1019.42 1019.78 1020.07 1020.29 1020.43 1020.50 1020.49 1020.41 1020.28 1020.11 1019.92 1019.73 1019.58 1019.49
1004.11 1004.57 1004.97 1005.30 1005.55 1005.77 1006.03 1006.39 1006.92 1007.64 1008.53 1009.56 1010.65 1011.73 1012.72 1013.56 1014.23 1014.74 1015.14 1015.46 1015.77 1016.09 1016.46 1016.89 1017.36 1017.86 1018.35 1018.81 1019.23 1019.60 1019.92 1020.18 1020.39 1020.54 1020.63 1020.64 1020.58 1020.44 1020.24 1020.00 1019.75 1019.53 1019.35
1005.73 1006.21 1006.57 1006.77 1006.85 1006.86 1006.90 1007.05 1007.39 1007.97 1008.77 1009.76 1010.85 1011.95 1012.98 1013.89 1014.64 1015.22 1015.68 1016.06 1016.40 1016.74 1017.10 1017.50 1017.92 1018.34 1018.75 1019.12 1019.45 1019.74 1020.01 1020.24 1020.44 1020.61 1020.73 1020.79 1020.77 1020.65 1020.46 1020.20 1019.90 1019.62 1019.37
1007.57 1008.09 1008.41 1008.51 1008.43 1008.25 1008.08 1008.02 1008.18 1008.60 1009.29 1010.19 1011.24 1012.34 1013.40 1014.34 1015.14 1015.79 1016.30 1016.72 1017.09 1017.43 1017.79 1018.15 1018.50 1018.85 1019.16 1019.43 1019.67 1019.89 1020.10 1020.31 1020.51 1020.71 1020.88 1020.99 1021.02 1020.95 1020.77 1020.51 1020.20 1019.86 1019.55
1009.42 1009.97 1010.27 1010.30 1010.11 1009.78 1009.44 1009.21 1009.20 1009.48 1010.04 1010.86 1011.84 1012.91 1013.96 1014.92 1015.74 1016.41 1016.96 1017.40 1017.78 1018.13 1018.45 1018.77 1019.07 1019.33 1019.56 1019.75 1019.92 1020.07 1020.24 1020.42 1020.64 1020.86 1021.08 1021.24 1021.33 1021.30 1021.16 1020.91 1020.59 1020.22 1019.87
1011.07 1011.67 1011.97 1011.96 1011.69 1011.26 1010.81 1010.46 1010.34 1010.51 1010.97 1011.70 1012.62 1013.64 1014.65 1015.59 1016.40 1017.07 1017.61 1018.05 1018.42 1018.75 1019.05 1019.33 1019.57 1019.78 1019.94 1020.07 1020.18 1020.29 1020.42 1020.60 1020.82 1021.06 1021.31 1021.52 1021.65 1021.67 1021.56 1021.34 1021.01 1020.64 1020.25
1012.38 1013.01 1013.32 1013.30 1013.01 1012.55 1012.05 1011.66 1011.48 1011.59 1011.99 1012.65 1013.51 1014.46 1015.41 1016.29 1017.06 1017.69 1018.20 1018.61 1018.95 1019.25 1019.53 1019.77 1019.98 1020.15 1020.28 1020.38 1020.45 1020.54 1020.65 1020.81 1021.03 1021.28 1021.54 1021.77 1021.94 1021.99 1021.92 1021.71 1021.41 1021.03 1020.63
1013.31 1013.95 1014.27 1014.27 1013.99 1013.55 1013.07 1012.69 1012.53 1012.63 1013.00 1013.63 1014.42 1015.30 1016.18 1016.99 1017.68 1018.25 1018.69 1019.06 1019.36 1019.63 1019.88 1020.11 1020.31 1020.47 1020.59 1020.67 1020.74 1020.81 1020.91 1021.05 1021.25 1021.49 1021.74 1021.98 1022.15 1022.22 1022.17 1022.00 1021.71 1021.36 1020.97
1013.89 1014.53 1014.86 1014.88 1014.64 1014.26 1013.86 1013.55 1013.44 1013.58 1013.97 1014.57 1015.32 1016.13 1016.92 1017.63 1018.23 1018.71 1019.09 1019.40 1019.66 1019.91 1020.15 1020.37 1020.58 1020.76 1020.89 1020.99 1021.05 1021.12 1021.20 1021.31 1021.47 1021.68 1021.90 1022.10 1022.26 1022.34 1022.31 1022.16 1021.92 1021.59 1021.22
1014.28 1014.88 1015.20 1015.24 1015.06 1014.77 1014.47 1014.27 1014.25 1014.46 1014.88 1015.47 1016.17 1016.91 1017.61 1018.23 1018.73 1019.12 1019.43 1019.68 1019.91 1020.14 1020.39 1020.63 1020.87 1021.08 1021.24 1021.35 1021.43 1021.48 1021.53 1021.61 1021.71 1021.85 1022.02 1022.18 1022.31 1022.37 1022.35 1022.23 1022.03 1021.74 1021.41
1014.63 1015.17 1015.46 1015.51 1015.40 1015.20 1015.02 1014.94 1015.03 1015.31 1015.76 1016.35 1017.01 1017.68 1018.29 1018.80 1019.20 1019.51 1019.75 1019.97 1020.18 1020.41 1020.68 1020.96 1021.23 1021.48 1021.67 1021.81 1021.88 1021.92 1021.93 1021.94 1021.98 1022.05 1022.13 1022.23 1022.32 1022.36 1022.34 1022.25 1022.08 1021.84 1021.54
1015.09 1015.55 1015.80 1015.86 1015.80 1015.69 1015.62 1015.65 1015.84 1016.19 1016.68 1017.26 1017.87 1018.46 1018.97 1019.39 1019.70 1019.94 1020.13 1020.32 1020.53 1020.78 1021.07 1021.39 1021.70 1021.98 1022.21 1022.35 1022.42 1022.42 1022.38 1022.33 1022.29 1022.26 1022.27 1022.30 1022.33 1022.34 1022.32 1022.24 1022.10 1021.89 1021.62
1015.73 1016.10 1016.30 1016.36 1016.35 1016.32 1016.35 1016.49 1016.76 1017.16 1017.66 1018.21 1018.77 1019.27 1019.70 1020.02 1020.26 1020.44 1020.59 1020.77 1020.98 1021.25 1021.58 1021.93 1022.28 1022.58 1022.81 1022.96 1023.00 1022.97 1022.87 1022.75 1022.62 1022.51 1022.43 1022.39 1022.36 1022.34 1022.30 1022.22 1022.08 1021.89 1021.63
1016.55 1016.85 1017.00 1017.06 1017.08 1017.12 1017.23 1017.45 1017.78 1018.21 1018.70 1019.22 1019.70 1020.13 1020.46 1020.70 1020.87 1021.00 1021.13 1021.30 1021.52 1021.81 1022.16 1022.53 1022.89 1023.20 1023.43 1023.55 1023.57 1023.49 1023.33 1023.14 1022.94 1022.75 1022.60 1022.49 1022.41 1022.34 1022.27 1022.17 1022.02 1021.82 1021.55
1017.51 1017.73 1017.85 1017.91 1017.97 1018.07 1018.24 1018.51 1018.87 1019.31 1019.78 1020.24 1020.65 1020.98 1021.23 1021.40 1021.51 1021.60 1021.71 1021.86 1022.09 1022.39 1022.73 1023.11 1023.46 1023.76 1023.96 1024.06 1024.04 1023.91 1023.71 1023.46 1023.20 1022.95 1022.74 1022.57 1022.43 1022.32 1022.20 1022.06 1021.88 1021.64 1021.33
1018.48 1018.66 1018.76 1018.83 1018.92 1019.07 1019.29 1019.59 1019.97 1020.39 1020.82 1021.21 1021.55 1021.80 1021.96 1022.06 1022.11 1022.16 1022.25 1022.39 1022.60 1022.89 1023.22 1023.57 1023.90 1024.16 1024.33 1024.39 1024.33 1024.17 1023.94 1023.66 1023.36 1023.07 1022.82 1022.60 1022.41 1022.23 1022.06 1021.86 1021.62 1021.32 1020.96
1019.37 1019.53 1019.63 1019.72 1019.84 1020.02 1020.28 1020.60 1020.98 1021.37 1021.75 1022.07 1022.33 1022.50 1022.59 1022.62 1022.62 1022.63 1022.69 1022.80 1022.99 1023.25 1023.55 1023.86 1024.14 1024.36 1024.49 1024.51 1024.43 1024.26 1024.01 1023.71 1023.40 1023.09 1022.81 1022.55 1022.31 1022.08 1021.83 1021.56 1021.25 1020.88 1020.45
1020.10 1020.25 1020.37 1020.49 1020.64 1020.85 1021.13 1021.45 1021.81 1022.17 1022.49 1022.75 1022.93 1023.03 1023.05 1023.03 1022.99 1022.97 1022.99 1023.07 1023.23 1023.45 1023.70 1023.96 1024.19 1024.37 1024.46 1024.46 1024.36 1024.18 1023.94 1023.65 1023.35 1023.03 1022.73 1022.44 1022.14 1021.85 1021.53 1021.17 1020.78 1020.33 1019.85
1020.65 1020.81 1020.94 1021.08 1021.26 1021.49 1021.77 1022.10 1022.43 1022.75 1023.01 1023.21 1023.33 1023.37 1023.35 1023.28 1023.21 1023.15 1023.15 1023.21 1023.33 1023.50 1023.71 1023.92 1024.11 1024.24 1024.31 1024.29 1024.20 1024.03 1023.81 1023.54 1023.24 1022.93 1022.61 1022.28 1021.93 1021.57 1021.17 1020.73 1020.26 1019.75 1019.21
1021.01 1021.18 1021.33 1021.50 1021.69 1021.93 1022.21 1022.51 1022.81 1023.09 1023.31 1023.45 1023.53 1023.53 1023.47 1023.38 1023.29 1023.22 1023.20 1023.24 1023.33 1023.48 1023.65 1023.82 1023.98 1024.09 1024.14 1024.13 1024.04 1023.89 1023.69 1023.44 1023.15 1022.83 1022.49 1022.11 1021.71 1021.27 1020.79 1020.28 1019.73 1019.17 1018.60
1021.24 1021.42 1021.58 1021.75 1021.95 1022.18 1022.44 1022.71 1022.98 1023.21 1023.39 1023.50 1023.54 1023.52 1023.45 1023.35 1023.26 1023.20 1023.19 1023.22 1023.31 1023.45 1023.60 1023.76 1023.90 1024.01 1024.06 1024.05 1023.98 1023.84 1023.65 1023.41 1023.11 1022.77 1022.39 1021.96 1021.49 1020.97 1020.42 1019.84 1019.25 1018.65 1018.07
1021.37 1021.55 1021.71 1021.88 1022.06 1022.27 1022.50 1022.74 1022.97 1023.16 1023.31 1023.39 1023.41 1023.38 1023.32 1023.24 1023.17 1023.14 1023.15 1023.21 1023.32 1023.46 1023.63 1023.80 1023.94 1024.05 1024.11 1024.11 1024.05 1023.92 1023.72 1023.46 1023.14 1022.75 1022.31 1021.82 1021.27 1020.69 1020.07 1019.44 1018.81 1018.21 1017.64
1021.45 1021.62 1021.77 1021.91 1022.08 1022.25 1022.45 1022.65 1022.84 1023.00 1023.11 1023.17 1023.19 1023.17 1023.13 1023.08 1023.05 1023.06 1023.12 1023.22 1023.37 1023.56 1023.76 1023.95 1024.12 1024.24 1024.31 1024.31 1024.24 1024.10 1023.87 1023.57 1023.19 1022.74 1022.23 1021.66 1021.04 1020.39 1019.72 1019.06 1018.42 1017.83 1017.29
1021.50 1021.65 1021.78 1021.90 1022.03 1022.17 1022.33 1022.49 1022.64 1022.76 1022.85 1022.90 1022.91 1022.90 1022.89 1022.89 1022.91 1022.98 1023.09 1023.26 1023.47 1023.70 1023.95 1024.18 1024.38 1024.52 1024.60 1024.60 1024.50 1024.32 1024.04 1023.68 1023.23 1022.70 1022.11 1021.46 1020.77 1020.07 1019.37 1018.69 1018.06 1017.49 1017.00
1021.54 1021.66 1021.77 1021.86 1021.96 1022.06 1022.18 1022.30 1022.41 1022.50 1022.56 1022.60 1022.61 1022.62 1022.63 1022.67 1022.74 1022.87 1023.05 1023.28 1023.55 1023.85 1024.15 1024.42 1024.65 1024.81 1024.89 1024.87 1024.74 1024.50 1024.16 1023.72 1023.19 1022.58 1021.91 1021.19 1020.46 1019.72 1019.01 1018.34 1017.73 1017.20 1016.75
Thickness
5841 5841 5840 5834 5828 5823 5816 5809 5800 5793 5785 5776 5767 5760 5753 5748 5742 5737 5732 5727 5722 5717 5712 5705 5698 5692 5686 5680 5675 5670 5665 5661 5659 5657 5657 5660 5662 5661 5660 5659 5657 5655 5654
5830 5831 5834 5831 5825 5818 5813 5805 5797 5789 5781 5773 5766 5758 5750 5741 5735 5729 5723 5718 5714 5710 5705 5699 5691 5684 5678 5672 5667 5664 5658 5654 5651 5648 5646 5648 5651 5653 5654 5651 5649 5647 5645
5815 5819 5822 5821 5818 5813 5809 5804 5794 5785 5776 5767 5758 5749 5739 5731 5724 5718 5714 5709 5706 5702 5697 5692 5685 5679 5673 5667 5662 5657 5652 5647 5644 5643 5641 5637 5637 5640 5642 5642 5640 5639 5636
5805 5805 5805 5805 5806 5806 5805 5799 5789 5779 5768 5760 5750 5742 5733 5724 5717 5711 5705 5700 5695 5692 5687 5683 5677 5671 5665 5660 5654 5649 5646 5643 5638 5634 5633 5630 5627 5623 5624 5628 5629 5628 5625
5784 5783 5784 5785 5788 5792 5792 5787 5779 5768 5759 5751 5742 5734 5725 5717 5709 5703 5696 5690 5684 5680 5676 5672 5667 5661 5657 5651 5646 5641 5638 5635 5630 5626 5624 5622 5619 5616 5611 5611 5612 5612 5612
5765 5765 5766 5768 5768 5771 5771 5767 5760 5751 5744 5738 5731 5724 5715 5707 5699 5692 5685 5678 5672 5668 5664 5660 5656 5651 5646 5642 5637 5633 5629 5624 5620 5617 5614 5610 5607 5603 5600 5598 5597 5596 5595
5747 5746 5746 5746 5746 5748 5748 5745 5741 5733 5728 5722 5716 5710 5704 5697 5689 5681 5673 5667 5660 5656 5652 5648 5644 5640 5635 5630 5626 5622 5618 5613 5609 5605 5601 5597 5593 5590 5587 5584 5582 5581 5579
5728 5726 5726 5726 5726 5727 5727 5725 5721 5716 5711 5706 5701 5696 5690 5684 5676 5669 5662 5655 5649 5644 5640 5636 5632 5627 5623 5619 5614 5610 5606 5601 5596 5593 5588 5583 5580 5576 5572 5568 5565 5564 5563
5710 5709 5708 5708 5708 5708 5708 5707 5704 5700 5695 5691 5686 5681 5675 5668 5661 5654 5648 5642 5636 5631 5627 5623 5618 5614 5610 5606 5602 5597 5593 5588 5584 5579 5575 5569 5565 5561 5557 5553 5548 5545 5544
5695 5693 5692 5692 5692 5692 5691 5690 5688 5684 5681 5677 5672 5665 5659 5654 5648 5642 5635 5629 5623 5618 5614 5609 5604 5600 5596 5592 5588 5585 5580 5575 5571 5566 5561 5555 5551 5546 5540 5536 5532 5527 5525
5680 5678 5678 5678 5678 5677 5676 5674 5672 5669 5665 5660 5655 5650 5645 5639 5634 5628 5621 5615 5610 5605 5600 5595 5591 5587 5583 5578 5574 5570 5566 5562 5557 5551 5547 5541 5536 5530 5524 5519 5515 5511 5507
5667 5666 5666 5665 5665 5663 5662 5660 5657 5653 5649 5645 5640 5635 5630 5624 5618 5612 5606 5601 5596 5591 5586 5582 5577 5573 5569 5563 5559 5555 5550 5546 5540 5535 5530 5525 5520 5514 5509 5504 5498 5494 5489
5655 5654 5654 5653 5652 5651 5649 5646 5642 5638 5634 5630 5624 5619 5613 5608 5602 5596 5591 5586 5581 5576 5572 5567 5563 5558 5553 5549 5543 5538 5533 5528 5523 5518 5513 5509 5504 5500 5494 5489 5484 5479 5475
5643 5642 5641 5640 5638 5637 5634 5631 5627 5623 5619 5614 5608 5602 5596 5590 5585 5580 5575 5570 5565 5560 5556 5551 5546 5542 5536 5529 5523 5519 5515 5511 5507 5502 5498 5494 5491 5486 5481 5476 5471 5467 5461
5630 5629 5627 5625 5623 5621 5618 5615 5611 5606 5602 5596 5590 5583 5578 5572 5567 5561 5556 5552 5547 5543 5538 5534 5530 5525 5516 5507 5502 5498 5497 5493 5491 5489 5486 5482 5479 5475 5469 5464 5459 5453 5449
5616 5613 5611 5608 5606 5603 5599 5595 5590 5586 5582 5577 5571 5565 5559 5554 5548 5543 5538 5534 5530 5525 5521 5517 5512 5506 5497 5488 5484 5480 5478 5477 5477 5476 5474 5470 5468 5465 5458 5453 5448 5443 5439
5600 5595 5592 5589 5585 5582 5579 5574 5570 5566 5562 5557 5551 5546 5541 5537 5532 5528 5523 5518 5513 5509 5504 5500 5494 5486 5477 5473 5469 5465 5463 5464 5465 5464 5461 5459 5457 5453 5448 5443 5440 5437 5435
5582 5578 5574 5570 5567 5563 5560 5556 5552 5548 5544 5539 5534 5529 5525 5521 5516 5512 5507 5502 5497 5493 5488 5483 5478 5471 5463 5458 5454 5451 5452 5453 5453 5451 5449 5447 5445 5442 5436 5434 5433 5432 5432
5568 5563 5559 5556 5553 5549 5546 5542 5537 5532 5528 5523 5518 5514 5510 5506 5502 5497 5492 5487 5482 5478 5474 5469 5463 5458 5450 5444 5440 5438 5439 5442 5441 5440 5439 5437 5435 5431 5428 5427 5428 5429 5430
5554 5550 5547 5543 5539 5535 5532 5528 5523 5519 5514 5510 5505 5501 5497 5492 5487 5482 5477 5471 5467 5463 5459 5454 5450 5445 5440 5432 5428 5425 5426 5427 5427 5429 5429 5429 5427 5424 5422 5422 5424 5426 5428
5543 5539 5535 5531 5527 5523 5520 5515 5511 5506 5502 5498 5493 5488 5483 5479 5473 5467 5462 5457 5453 5448 5444 5441 5437 5433 5428 5422 5417 5414 5412 5413 5414 5417 5420 5421 5420 5419 5420 5421 5422 5425 5426
5532 5529 5525 5520 5516 5513 5508 5503 5499 5495 5491 5486 5481 5477 5471 5467 5461 5455 5449 5444 5440 5437 5433 5429 5425 5421 5417 5412 5408 5405 5403 5402 5404 5408 5412 5414 5416 5418 5421 5423 5426 5427 5426
5524 5520 5516 5511 5507 5503 5498 5493 5488 5485 5480 5475 5470 5465 5459 5454 5449 5444 5439 5435 5430 5426 5423 5419 5415 5411 5407 5403 5399 5397 5396 5397 5399 5403 5406 5410 5415 5419 5424 5428 5428 5429 5429
5516 5512 5508 5503 5498 5494 5490 5485 5481 5476 5470 5464 5459 5454 5449 5444 5439 5434 5430 5425 5420 5416 5413 5409 5405 5401 5398 5393 5389 5389 5391 5394 5397 5400 5404 5410 5417 5422 5425 5428 5431 5432 5432
5509 5505 5501 5497 5492 5488 5483 5478 5472 5467 5461 5456 5451 5447 5442 5437 5432 5427 5420 5416 5408 5403 5399 5396 5393 5390 5388 5381 5379 5380 5385 5387 5392 5395 5403 5412 5418 5424 5427 5430 5433 5434 5435
5504 5499 5495 5490 5486 5481 5476 5471 5465 5460 5454 5448 5444 5441 5437 5432 5429 5423 5415 5406 5401 5395 5390 5386 5382 5381 5378 5378 5379 5382 5385 5390 5394 5398 5405 5412 5418 5423 5427 5430 5434 5435 5436